Time,TemperatureF,DewpointF,PressureIn,WindDirection,WindDirectionDegrees,WindSpeedMPH,WindSpeedGustMPH,Humidity,HourlyPrecipIn,Conditions,Clouds,dailyrainin,SoftwareType,DateUTC
2013-04-27 00:01:00,54.0,46.0,30.00,ESE,119,0.0,-999.0,74,-99.99,,,-99.99,,2013-04-27 07:01:00,
2013-04-27 00:11:00,54.0,46.0,30.00,ESE,119,0.0,-999.0,74,-99.99,,,-99.99,,2013-04-27 07:11:00,
2013-04-27 00:21:00,53.0,45.0,30.00,ESE,119,0.0,-999.0,74,-99.99,,,-99.99,,2013-04-27 07:21:00,
2013-04-27 00:31:00,53.0,45.0,30.00,ESE,119,0.0,-999.0,74,-99.99,,,-99.99,,2013-04-27 07:31:00,
2013-04-27 00:41:00,53.0,45.0,30.00,ESE,119,0.0,-999.0,74,-99.99,,,-99.99,,2013-04-27 07:41:00,
2013-04-27 00:52:00,53.0,46.0,30.00,ESE,119,0.0,-999.0,76,-99.99,,,-99.99,,2013-04-27 07:52:00,
2013-04-27 01:01:00,53.0,46.0,30.00,ESE,119,0.0,-999.0,76,-99.99,,,-99.99,,2013-04-27 08:01:00,
2013-04-27 01:11:00,53.0,46.0,30.00,ESE,119,0.0,-999.0,76,-99.99,,,-99.99,,2013-04-27 08:11:00,
2013-04-27 01:21:00,52.0,44.0,30.00,ESE,119,0.0,-999.0,75,-99.99,,,-99.99,,2013-04-27 08:21:00,
2013-04-27 01:33:00,52.0,45.0,30.00,ESE,119,0.0,-999.0,76,-99.99,,,-99.99,,2013-04-27 08:33:00,
2013-04-27 01:41:00,52.0,45.0,30.00,ESE,119,0.0,-999.0,76,-99.99,,,-99.99,,2013-04-27 08:41:00,
2013-04-27 01:52:00,52.0,45.0,29.99,ESE,119,0.0,-999.0,77,-99.99,,,-99.99,,2013-04-27 08:52:00,
2013-04-27 02:01:00,52.0,45.0,29.98,ESE,119,0.0,-999.0,77,-99.99,,,-99.99,,2013-04-27 09:01:00,
2013-04-27 02:11:00,52.0,45.0,29.98,ESE,119,0.0,-999.0,77,-99.99,,,-99.99,,2013-04-27 09:11:00,
2013-04-27 02:21:00,52.0,45.0,29.98,ESE,119,0.0,-999.0,77,-99.99,,,-99.99,,2013-04-27 09:21:00,
2013-04-27 02:33:00,51.0,44.0,29.99,ESE,119,0.0,-999.0,78,-99.99,,,-99.99,,2013-04-27 09:33:00,
2013-04-27 02:42:00,51.0,44.0,29.99,ESE,119,0.0,-999.0,78,-99.99,,,-99.99,,2013-04-27 09:42:00,
2013-04-27 02:53:00,51.0,44.0,29.99,ESE,119,0.0,-999.0,78,-99.99,,,-99.99,,2013-04-27 09:53:00,
2013-04-27 03:02:00,51.0,44.0,29.99,ESE,119,0.0,-999.0,78,-99.99,,,-99.99,,2013-04-27 10:02:00,
2013-04-27 03:11:00,51.0,44.0,29.99,ESE,119,0.0,-999.0,78,-99.99,,,-99.99,,2013-04-27 10:11:00,
2013-04-27 03:22:00,51.0,45.0,29.99,ESE,119,0.0,-999.0,79,-99.99,,,-99.99,,2013-04-27 10:22:00,
2013-04-27 03:32:00,51.0,44.0,29.99,ESE,119,0.0,-999.0,78,-99.99,,,-99.99,,2013-04-27 10:32:00,
2013-04-27 03:42:00,51.0,44.0,29.99,ESE,119,0.0,-999.0,78,-99.99,,,-99.99,,2013-04-27 10:42:00,
2013-04-27 03:52:00,50.0,44.0,29.98,ESE,119,0.0,-999.0,79,-99.99,,,-99.99,,2013-04-27 10:52:00,
2013-04-27 04:02:00,50.0,44.0,29.98,ESE,119,0.0,-999.0,80,-99.99,,,-99.99,,2013-04-27 11:02:00,
2013-04-27 04:11:00,50.0,44.0,29.98,ESE,119,0.0,-999.0,81,-99.99,,,-99.99,,2013-04-27 11:11:00,
2013-04-27 04:21:00,50.0,44.0,29.98,ESE,119,0.0,-999.0,81,-99.99,,,-99.99,,2013-04-27 11:21:00,
2013-04-27 04:31:00,49.0,43.0,29.98,ESE,119,0.0,-999.0,81,-99.99,,,-99.99,,2013-04-27 11:31:00,
2013-04-27 04:41:00,49.0,43.0,29.98,ESE,119,0.0,-999.0,81,-99.99,,,-99.99,,2013-04-27 11:41:00,
2013-04-27 04:52:00,49.0,44.0,29.98,ESE,119,0.0,-999.0,82,-99.99,,,-99.99,,2013-04-27 11:52:00,
2013-04-27 05:01:00,49.0,44.0,29.98,ESE,119,0.0,-999.0,82,-99.99,,,-99.99,,2013-04-27 12:01:00,
2013-04-27 05:11:00,49.0,44.0,29.98,ESE,119,0.0,-999.0,82,-99.99,,,-99.99,,2013-04-27 12:11:00,
2013-04-27 05:21:00,49.0,44.0,29.98,ESE,119,0.0,-999.0,83,-99.99,,,-99.99,,2013-04-27 12:21:00,
2013-04-27 05:32:00,49.0,44.0,29.98,ESE,119,0.0,-999.0,84,-99.99,,,-99.99,,2013-04-27 12:32:00,
2013-04-27 05:42:00,49.0,44.0,29.98,ESE,119,0.0,-999.0,84,-99.99,,,-99.99,,2013-04-27 12:42:00,
2013-04-27 05:52:00,48.0,43.0,29.98,ESE,119,0.0,-999.0,83,-99.99,,,-99.99,,2013-04-27 12:52:00,
2013-04-27 06:01:00,48.0,43.0,29.98,ESE,119,0.0,-999.0,84,-99.99,,,-99.99,,2013-04-27 13:01:00,
2013-04-27 06:11:00,48.0,43.0,29.98,ESE,119,0.0,-999.0,84,-99.99,,,-99.99,,2013-04-27 13:11:00,
2013-04-27 06:21:00,48.0,43.0,29.98,ESE,119,0.0,-999.0,84,-99.99,,,-99.99,,2013-04-27 13:21:00,
2013-04-27 06:32:00,48.0,43.0,29.98,ESE,119,0.0,-999.0,84,-99.99,,,-99.99,,2013-04-27 13:32:00,
2013-04-27 06:41:00,48.0,43.0,29.98,ESE,119,0.0,-999.0,84,-99.99,,,-99.99,,2013-04-27 13:41:00,
2013-04-27 06:52:00,48.0,43.0,29.98,ESE,119,0.0,-999.0,84,-99.99,,,-99.99,,2013-04-27 13:52:00,
2013-04-27 07:02:00,49.0,45.0,29.98,ESE,119,0.0,-999.0,85,-99.99,,,-99.99,,2013-04-27 14:02:00,
2013-04-27 07:11:00,49.0,45.0,29.98,ESE,119,0.0,-999.0,85,-99.99,,,-99.99,,2013-04-27 14:11:00,
2013-04-27 07:21:00,49.0,45.0,29.99,ESE,119,0.0,-999.0,86,-99.99,,,-99.99,,2013-04-27 14:21:00,
2013-04-27 07:31:00,50.0,46.0,29.99,ESE,119,0.0,-999.0,86,-99.99,,,-99.99,,2013-04-27 14:31:00,
2013-04-27 07:41:00,50.0,46.0,29.99,ESE,119,0.0,-999.0,86,-99.99,,,-99.99,,2013-04-27 14:41:00,
2013-04-27 07:52:00,51.0,47.0,29.99,ESE,119,0.0,-999.0,87,-99.99,,,-99.99,,2013-04-27 14:52:00,
2013-04-27 08:01:00,52.0,48.0,29.99,ESE,119,0.0,-999.0,85,-99.99,,,-99.99,,2013-04-27 15:01:00,
2013-04-27 08:11:00,52.0,48.0,29.99,ESE,119,0.0,-999.0,85,-99.99,,,-99.99,,2013-04-27 15:11:00,
2013-04-27 08:21:00,53.0,47.0,29.99,ESE,119,0.0,-999.0,81,-99.99,,,-99.99,,2013-04-27 15:21:00,
2013-04-27 08:33:00,56.0,49.0,29.99,ESE,119,0.0,-999.0,77,-99.99,,,-99.99,,2013-04-27 15:33:00,
2013-04-27 08:42:00,56.0,49.0,29.99,ESE,119,0.0,-999.0,77,-99.99,,,-99.99,,2013-04-27 15:42:00,
2013-04-27 08:53:00,58.0,49.0,29.99,ESE,119,0.0,-999.0,71,-99.99,,,-99.99,,2013-04-27 15:53:00,
2013-04-27 09:02:00,60.0,47.0,29.99,ESE,119,0.0,-999.0,63,-99.99,,,-99.99,,2013-04-27 16:02:00,
2013-04-27 09:13:00,60.0,47.0,29.99,ESE,119,0.0,-999.0,63,-99.99,,,-99.99,,2013-04-27 16:13:00,
2013-04-27 09:22:00,63.0,49.0,29.99,ESE,119,0.0,-999.0,60,-99.99,,,-99.99,,2013-04-27 16:22:00,
2013-04-27 09:32:00,64.0,48.0,29.98,East,97,0.0,-999.0,57,-99.99,,,-99.99,,2013-04-27 16:32:00,
2013-04-27 09:42:00,64.0,48.0,29.98,East,97,0.0,-999.0,57,-99.99,,,-99.99,,2013-04-27 16:42:00,
2013-04-27 09:52:00,66.0,49.0,29.98,ENE,77,0.0,-999.0,55,-99.99,,,-99.99,,2013-04-27 16:52:00,
2013-04-27 10:01:00,68.0,50.0,29.98,East,90,1.0,-999.0,52,-99.99,,,-99.99,,2013-04-27 17:01:00,
2013-04-27 10:11:00,68.0,50.0,29.98,East,90,1.0,-999.0,52,-99.99,,,-99.99,,2013-04-27 17:11:00,
2013-04-27 10:22:00,69.0,51.0,29.98,East,79,0.0,-999.0,53,-99.99,,,-99.99,,2013-04-27 17:22:00,
2013-04-27 10:31:00,70.0,51.0,29.98,ENE,78,1.0,-999.0,51,-99.99,,,-99.99,,2013-04-27 17:31:00,
2013-04-27 10:42:00,70.0,51.0,29.98,ENE,78,1.0,-999.0,51,-99.99,,,-99.99,,2013-04-27 17:42:00,
2013-04-27 10:53:00,72.0,51.0,29.98,East,92,0.0,-999.0,47,-99.99,,,-99.99,,2013-04-27 17:53:00,
2013-04-27 11:02:00,74.0,52.0,29.98,East,101,0.0,-999.0,46,-99.99,,,-99.99,,2013-04-27 18:02:00,
2013-04-27 11:11:00,74.0,52.0,29.98,East,101,0.0,-999.0,46,-99.99,,,-99.99,,2013-04-27 18:11:00,
2013-04-27 11:21:00,76.0,52.0,29.98,ENE,72,0.0,-999.0,43,-99.99,,,-99.99,,2013-04-27 18:21:00,
2013-04-27 11:31:00,78.0,52.0,29.98,East,89,0.0,-999.0,41,-99.99,,,-99.99,,2013-04-27 18:31:00,
2013-04-27 11:41:00,78.0,52.0,29.98,East,89,0.0,-999.0,41,-99.99,,,-99.99,,2013-04-27 18:41:00,
2013-04-27 11:52:00,79.0,54.0,29.97,NE,52,0.0,-999.0,42,-99.99,,,-99.99,,2013-04-27 18:52:00,
2013-04-27 12:01:00,79.0,53.0,29.96,NNE,31,1.0,-999.0,40,-99.99,,,-99.99,,2013-04-27 19:01:00,
2013-04-27 12:11:00,79.0,53.0,29.96,NNE,31,1.0,-999.0,40,-99.99,,,-99.99,,2013-04-27 19:11:00,
2013-04-27 12:21:00,80.0,55.0,29.96,ESE,119,1.0,-999.0,42,-99.99,,,-99.99,,2013-04-27 19:21:00,
2013-04-27 12:31:00,80.0,51.0,29.96,ESE,115,1.0,-999.0,36,-99.99,,,-99.99,,2013-04-27 19:31:00,
2013-04-27 12:42:00,80.0,51.0,29.96,ESE,115,1.0,-999.0,36,-99.99,,,-99.99,,2013-04-27 19:42:00,
2013-04-27 12:52:00,80.0,54.0,29.95,East,84,1.0,-999.0,41,-99.99,,,-99.99,,2013-04-27 19:52:00,
2013-04-27 13:01:00,80.0,55.0,29.94,ESE,123,1.0,-999.0,43,-99.99,,,-99.99,,2013-04-27 20:01:00,
2013-04-27 13:11:00,80.0,55.0,29.94,ESE,123,1.0,-999.0,43,-99.99,,,-99.99,,2013-04-27 20:11:00,
2013-04-27 13:21:00,81.0,56.0,29.93,ESE,102,1.0,-999.0,42,-99.99,,,-99.99,,2013-04-27 20:21:00,
2013-04-27 13:31:00,80.0,55.0,29.93,ESE,105,1.0,-999.0,42,-99.99,,,-99.99,,2013-04-27 20:31:00,
2013-04-27 13:41:00,80.0,55.0,29.93,ESE,105,1.0,-999.0,42,-99.99,,,-99.99,,2013-04-27 20:41:00,
2013-04-27 13:52:00,80.0,55.0,29.93,ESE,103,1.0,-999.0,43,-99.99,,,-99.99,,2013-04-27 20:52:00,
2013-04-27 14:01:00,81.0,56.0,29.92,SE,135,1.0,-999.0,42,-99.99,,,-99.99,,2013-04-27 21:01:00,
2013-04-27 14:11:00,81.0,56.0,29.92,SE,135,1.0,-999.0,42,-99.99,,,-99.99,,2013-04-27 21:11:00,
2013-04-27 14:21:00,82.0,57.0,29.92,ENE,67,1.0,-999.0,43,-99.99,,,-99.99,,2013-04-27 21:21:00,
2013-04-27 14:32:00,82.0,56.0,29.91,ENE,76,1.0,-999.0,41,-99.99,,,-99.99,,2013-04-27 21:32:00,
2013-04-27 14:42:00,82.0,56.0,29.91,ENE,76,1.0,-999.0,41,-99.99,,,-99.99,,2013-04-27 21:42:00,
2013-04-27 14:53:00,81.0,55.0,29.90,ESE,102,1.0,-999.0,41,-99.99,,,-99.99,,2013-04-27 21:53:00,
2013-04-27 15:02:00,81.0,53.0,29.89,ESE,111,1.0,-999.0,38,-99.99,,,-99.99,,2013-04-27 22:02:00,
2013-04-27 15:12:00,81.0,53.0,29.89,ESE,111,1.0,-999.0,38,-99.99,,,-99.99,,2013-04-27 22:12:00,
2013-04-27 15:22:00,82.0,55.0,29.89,NE,36,0.0,-999.0,39,-99.99,,,-99.99,,2013-04-27 22:22:00,
2013-04-27 15:32:00,82.0,55.0,29.88,ESE,119,1.0,-999.0,40,-99.99,,,-99.99,,2013-04-27 22:32:00,
2013-04-27 15:42:00,82.0,55.0,29.88,ESE,119,1.0,-999.0,40,-99.99,,,-99.99,,2013-04-27 22:42:00,
2013-04-27 15:52:00,81.0,55.0,29.88,ENE,69,1.0,-999.0,41,-99.99,,,-99.99,,2013-04-27 22:52:00,
2013-04-27 16:02:00,81.0,55.0,29.88,NE,42,1.0,-999.0,41,-99.99,,,-99.99,,2013-04-27 23:02:00,
2013-04-27 16:11:00,81.0,55.0,29.88,NE,42,1.0,-999.0,41,-99.99,,,-99.99,,2013-04-27 23:11:00,
2013-04-27 16:22:00,81.0,55.0,29.87,ESE,112,1.0,-999.0,41,-99.99,,,-99.99,,2013-04-27 23:22:00,
2013-04-27 16:32:00,81.0,55.0,29.87,East,82,1.0,-999.0,41,-99.99,,,-99.99,,2013-04-27 23:32:00,
2013-04-27 16:42:00,81.0,55.0,29.87,East,82,1.0,-999.0,41,-99.99,,,-99.99,,2013-04-27 23:42:00,
2013-04-27 16:52:00,81.0,56.0,29.87,East,95,1.0,-999.0,42,-99.99,,,-99.99,,2013-04-27 23:52:00,
2013-04-27 17:01:00,80.0,55.0,29.86,East,96,0.0,-999.0,42,-99.99,,,-99.99,,2013-04-28 00:01:00,
2013-04-27 17:11:00,80.0,55.0,29.86,East,96,0.0,-999.0,42,-99.99,,,-99.99,,2013-04-28 00:11:00,
2013-04-27 17:21:00,80.0,54.0,29.86,SE,128,0.0,-999.0,41,-99.99,,,-99.99,,2013-04-28 00:21:00,
2013-04-27 17:31:00,79.0,54.0,29.86,ESE,111,1.0,-999.0,42,-99.99,,,-99.99,,2013-04-28 00:31:00,
2013-04-27 17:42:00,79.0,54.0,29.86,ESE,111,1.0,-999.0,42,-99.99,,,-99.99,,2013-04-28 00:42:00,
2013-04-27 17:52:00,78.0,54.0,29.86,ESE,121,0.0,-999.0,44,-99.99,,,-99.99,,2013-04-28 00:52:00,
2013-04-27 18:01:00,78.0,55.0,29.86,ESE,122,0.0,-999.0,45,-99.99,,,-99.99,,2013-04-28 01:01:00,
2013-04-27 18:11:00,78.0,55.0,29.86,ESE,122,0.0,-999.0,45,-99.99,,,-99.99,,2013-04-28 01:11:00,
2013-04-27 18:21:00,77.0,54.0,29.85,East,101,0.0,-999.0,45,-99.99,,,-99.99,,2013-04-28 01:21:00,
2013-04-27 18:31:00,77.0,55.0,29.85,ENE,67,0.0,-999.0,47,-99.99,,,-99.99,,2013-04-28 01:31:00,
2013-04-27 18:41:00,77.0,55.0,29.85,ENE,67,0.0,-999.0,47,-99.99,,,-99.99,,2013-04-28 01:41:00,
2013-04-27 18:52:00,75.0,54.0,29.85,ESE,111,0.0,-999.0,48,-99.99,,,-99.99,,2013-04-28 01:52:00,
2013-04-27 19:01:00,73.0,54.0,29.85,East,97,0.0,-999.0,51,-99.99,,,-99.99,,2013-04-28 02:01:00,
2013-04-27 19:11:00,73.0,54.0,29.85,East,97,0.0,-999.0,51,-99.99,,,-99.99,,2013-04-28 02:11:00,
2013-04-27 19:21:00,71.0,54.0,29.85,ESE,113,0.0,-999.0,54,-99.99,,,-99.99,,2013-04-28 02:21:00,
2013-04-27 19:31:00,70.0,53.0,29.85,ESE,107,0.0,-999.0,55,-99.99,,,-99.99,,2013-04-28 02:31:00,
2013-04-27 19:41:00,70.0,53.0,29.85,ESE,107,0.0,-999.0,55,-99.99,,,-99.99,,2013-04-28 02:41:00,
2013-04-27 19:52:00,68.0,52.0,29.85,ESE,103,0.0,-999.0,57,-99.99,,,-99.99,,2013-04-28 02:52:00,
2013-04-27 20:01:00,68.0,53.0,29.85,ESE,103,0.0,-999.0,59,-99.99,,,-99.99,,2013-04-28 03:01:00,
2013-04-27 20:11:00,68.0,53.0,29.85,ESE,103,0.0,-999.0,59,-99.99,,,-99.99,,2013-04-28 03:11:00,
2013-04-27 20:21:00,67.0,53.0,29.85,ESE,103,0.0,-999.0,60,-99.99,,,-99.99,,2013-04-28 03:21:00,
2013-04-27 20:32:00,66.0,52.0,29.85,ESE,103,0.0,-999.0,60,-99.99,,,-99.99,,2013-04-28 03:32:00,
2013-04-27 20:42:00,66.0,52.0,29.85,ESE,103,0.0,-999.0,60,-99.99,,,-99.99,,2013-04-28 03:42:00,
2013-04-27 20:53:00,65.0,51.0,29.85,ESE,103,0.0,-999.0,61,-99.99,,,-99.99,,2013-04-28 03:53:00,
2013-04-27 21:02:00,64.0,51.0,29.86,ESE,103,0.0,-999.0,63,-99.99,,,-99.99,,2013-04-28 04:02:00,
2013-04-27 21:13:00,64.0,51.0,29.86,ESE,103,0.0,-999.0,63,-99.99,,,-99.99,,2013-04-28 04:13:00,
2013-04-27 21:22:00,64.0,51.0,29.86,ESE,103,0.0,-999.0,63,-99.99,,,-99.99,,2013-04-28 04:22:00,
2013-04-27 21:32:00,62.0,50.0,29.87,ESE,103,0.0,-999.0,65,-99.99,,,-99.99,,2013-04-28 04:32:00,
2013-04-27 21:42:00,62.0,50.0,29.87,ESE,103,0.0,-999.0,65,-99.99,,,-99.99,,2013-04-28 04:42:00,
2013-04-27 21:53:00,61.0,50.0,29.87,ESE,103,0.0,-999.0,68,-99.99,,,-99.99,,2013-04-28 04:53:00,
2013-04-27 22:02:00,60.0,50.0,29.87,ESE,103,0.0,-999.0,69,-99.99,,,-99.99,,2013-04-28 05:02:00,
2013-04-27 22:12:00,60.0,50.0,29.87,ESE,103,0.0,-999.0,69,-99.99,,,-99.99,,2013-04-28 05:12:00,
2013-04-27 22:22:00,59.0,50.0,29.87,ESE,103,0.0,-999.0,71,-99.99,,,-99.99,,2013-04-28 05:22:00,
2013-04-27 22:32:00,58.0,50.0,29.86,ESE,103,0.0,-999.0,74,-99.99,,,-99.99,,2013-04-28 05:32:00,
2013-04-27 22:42:00,58.0,50.0,29.86,ESE,103,0.0,-999.0,74,-99.99,,,-99.99,,2013-04-28 05:42:00,
2013-04-27 22:52:00,58.0,50.0,29.87,ESE,103,0.0,-999.0,75,-99.99,,,-99.99,,2013-04-28 05:52:00,
2013-04-27 23:01:00,57.0,50.0,29.87,ESE,103,0.0,-999.0,76,-99.99,,,-99.99,,2013-04-28 06:01:00,
2013-04-27 23:12:00,57.0,50.0,29.87,ESE,103,0.0,-999.0,76,-99.99,,,-99.99,,2013-04-28 06:12:00,
2013-04-27 23:21:00,57.0,49.0,29.86,ESE,103,0.0,-999.0,75,-99.99,,,-99.99,,2013-04-28 06:21:00,
2013-04-27 23:32:00,56.0,48.0,29.86,ESE,103,0.0,-999.0,75,-99.99,,,-99.99,,2013-04-28 06:32:00,
2013-04-27 23:41:00,56.0,48.0,29.86,ESE,103,0.0,-999.0,75,-99.99,,,-99.99,,2013-04-28 06:41:00,
2013-04-27 23:52:00,56.0,48.0,29.86,ESE,103,0.0,-999.0,75,-99.99,,,-99.99,,2013-04-28 06:52:00,